Location: Newark
(42.8481°N, 0.4872°E)
Time: 07:49:00
(UTC+00:00)

SR - Pass Details

Date: 01 November 2020
Orbit: 579 x 876 km, 66.7° (Epoch: 29 November)

Event Time Altitude Azimuth Distance (km) Brightness Sun altitude
Rises 09:29:45 0° 332° (NNW) 3,068 ? 25.0°
Reaches altitude 10° 09:32:03 10° 338° (NNW) 2,194 ? 25.3°
Maximum altitude 09:36:59 54° 56° (NE) 917 ? 25.8°
Drops below altitude 10° 09:42:19 10° 133° (SE) 2,375 ? 26.3°
Sets 09:44:53 0° 138° (SE) 3,344 ? 26.6°
